Date,TemperatureHighF,TemperatureAvgF,TemperatureLowF,DewpointHighF,DewpointAvgF,DewpointLowF,HumidityHigh,HumidityAvg,HumidityLow,PressureMaxIn,PressureMinIn,WindSpeedMaxMPH,WindSpeedAvgMPH,GustSpeedMaxMPH,PrecipitationSumIn
2013-2-1,21.7,15.8,3.3,21.3,6.6,-3.2,99,68,50,30.46,30.20,34,13,34,0.00
2013-2-2,29.4,21.1,17.5,28.0,17.5,12.1,100,86,76,30.22,30.07,27,7,27,0.00
2013-2-3,29.4,24.7,18.1,24.1,18.3,13.9,100,77,56,30.14,30.01,32,6,32,0.00
2013-2-4,37.3,28.1,22.7,28.8,24.3,17.9,96,86,59,30.03,29.84,22,7,22,0.00
2013-2-5,41.4,33.2,21.5,34.2,29.8,20.4,99,87,70,30.13,29.86,30,9,30,0.00
2013-2-6,44.9,36.3,25.2,34.3,32.0,24.4,100,85,58,30.26,30.10,18,7,18,0.00
2013-2-7,38.8,36.0,33.7,38.5,35.8,33.3,100,99,90,30.11,29.87,22,9,27,0.00
2013-2-8,34.9,28.8,26.2,34.6,27.0,24.6,100,93,85,30.41,30.04,33,6,34,0.00
2013-2-9,36.9,33.5,27.8,34.3,31.2,25.9,96,91,82,30.41,30.06,22,10,22,0.00
2013-2-10,48.9,44.2,35.5,48.8,41.7,30.5,100,92,61,30.08,29.54,38,17,43,0.00
2013-2-11,42.2,33.5,28.7,33.5,26.9,22.6,93,77,58,30.15,29.66,50,17,50,0.00
2013-2-12,39.4,31.1,25.4,30.0,28.2,24.5,98,90,59,30.18,29.95,17,3,17,0.00
2013-2-13,47.3,35.8,25.4,34.1,31.1,25.3,100,85,49,29.96,29.78,21,5,21,0.00
2013-2-14,41.7,36.4,33.7,35.6,32.7,28.0,98,86,67,30.05,29.75,34,11,34,0.00
2013-2-15,34.9,28.0,22.3,33.8,16.7,8.9,97,64,37,30.26,30.05,26,13,26,0.00
2013-2-16,29.7,22.1,14.8,14.5,11.8,6.1,78,65,46,30.26,30.16,27,9,27,0.00
2013-2-17,37.2,28.5,12.4,22.0,17.3,7.1,83,63,44,30.24,29.96,22,9,22,0.00
2013-2-18,54.5,37.6,26.6,49.1,33.7,20.9,100,87,58,29.96,29.50,44,21,48,0.00
2013-2-19,27.0,20.4,16.3,23.2,11.0,5.9,89,67,58,30.28,29.81,50,19,50,0.00
2013-2-20,25.2,18.0,7.2,16.3,10.7,-0.3,92,74,49,30.44,30.28,21,7,21,0.00
2013-2-21,29.0,24.4,14.4,28.0,23.2,0.0,100,95,81,30.38,29.89,30,12,34,0.00
2013-2-22,34.1,29.2,26.9,33.3,27.7,24.3,100,94,86,30.02,29.81,29,10,30,0.00
2013-2-23,31.0,24.6,20.0,24.6,20.1,-8.6,91,83,66,30.04,29.99,18,6,18,0.00
2013-2-24,38.2,28.8,13.6,30.2,25.2,12.4,98,87,57,30.16,30.03,10,1,10,0.00
2013-2-25,43.1,34.8,26.1,36.3,31.7,25.3,99,89,66,30.15,29.85,23,11,28,0.00
2013-2-26,35.5,33.0,31.9,33.4,32.5,28.8,100,98,78,29.86,29.48,45,7,45,0.00
2013-2-27,34.7,32.6,30.7,34.1,32.6,30.6,100,100,98,29.83,29.58,20,10,20,0.00
2013-2-28,36.9,33.6,32.3,34.4,33.2,32.2,100,98,87,30.11,29.83,21,7,21,0.00